FW4495 Weather Reports


time (UTC)temp
F
wind
direction
speed
knots
gust
knots
rain 1hr
in
rain 24hr
in
rain mn
in
humidity
%
barometer
mb
20260507100037 53 360 0.0 3.5 0.00 0.34 0.24 90 1012.4
20260507094534 54 342 0.0 1.7 0.00 0.34 0.24 89 1012.5
20260507093038 54 342 0.0 0.0 0.00 0.34 0.24 89 1012.3
20260507091530 54 342 0.9 2.6 0.00 0.34 0.24 89 1012.4
20260507090033 54 28 1.7 3.5 0.00 0.34 0.24 89 1012.2
20260507084526 54 17 0.0 2.6 0.00 0.34 0.24 89 1012.3
20260507083035 55 13 0.0 3.5 0.00 0.34 0.24 90 1012.2
20260507081527 55 331 1.7 5.2 0.00 0.34 0.24 89 1011.8
20260507080019 55 336 0.9 3.5 0.00 0.34 0.24 90 1011.7
20260507074526 55 36 0.0 4.3 0.00 0.34 0.24 91 1011.3
20260507073016 56 158 0.9 2.6 0.00 0.34 0.24 91 1011.3
20260507071514 56 5 2.6 7.8 0.00 0.34 0.24 91 1011.0
20260507070014 56 340 0.9 4.3 0.00 0.34 0.24 91 1011.3
20260507064512 56 15 1.7 8.7 0.00 0.34 0.24 91 1010.9
20260507063012 57 336 1.7 3.5 0.02 0.34 0.24 91 1010.4
20260507061508 57 348 1.7 7.0 0.08 0.34 0.24 90 1010.7
20260507060004 58 43 0.9 8.7 0.13 0.34 0.24 90 1010.9
20260507054502 59 313 2.6 5.2 0.15 0.34 0.24 90 1010.9
20260507053100 60 200 0.0 3.5 0.22 0.32 0.22 90 1010.9
20260507051600 60 157 0.9 2.6 0.16 0.26 0.16 89 1011.0
20260507050054 61 81 1.7 3.5 0.11 0.21 0.11 87 1010.6
20260507044550 63 310 0.9 5.2 0.09 0.19 0.09 83 1011.4
20260507043046 64 99 0.0 1.7 0.00 0.10 0.00 82 1011.0
20260507041544 64 85 0.9 2.6 0.00 0.10 0.00 81 1010.7
20260507040053 64 340 0.9 3.5 0.00 0.10 0.00 83 1010.5
20260507034549 65 329 2.6 7.8 0.00 0.10 0.10 87 1010.6
20260507033043 65 132 0.0 2.6 0.00 0.10 0.10 88 1010.3
20260507031540 65 138 0.0 1.7 0.00 0.10 0.10 88 1010.2
20260507030040 66 135 0.0 2.6 0.00 0.10 0.10 87 1010.2
20260507024538 65 213 0.9 1.7 0.00 0.10 0.10 87 1009.9
20260507023037 65 213 0.9 2.6 0.00 0.10 0.10 88 1009.8
20260507021537 65 213 0.0 0.9 0.00 0.10 0.10 88 1009.8
20260507020037 65 213 0.0 0.0 0.00 0.10 0.10 88 1009.9
20260507014536 65 213 0.0 0.0 0.00 0.10 0.10 87 1009.8
20260507013039 65 213 0.0 0.0 0.00 0.10 0.10 87 1010.4
20260507011540 65 213 0.0 0.0 0.00 0.10 0.10 87 1010.4
20260507010035 65 213 0.0 0.0 0.00 0.10 0.10 87 1010.3
20260507004534 66 213 0.0 1.7 0.00 0.10 0.10 86 1009.7
20260507003035 67 213 0.0 0.9 0.00 0.10 0.10 85 1010.0
20260507001546 67 213 0.0 0.0 0.00 0.10 0.10 83 1009.9
20260507000033 68 213 0.0 0.9 0.00 0.10 0.10 83 1009.7
20260506234542 68 213 0.0 1.7 0.00 0.10 0.10 82 1009.4
20260506233034 68 213 0.9 3.5 0.00 0.10 0.10 81 1009.3
20260506231536 69 242 0.9 3.5 0.00 0.10 0.10 80 1009.1
20260506230031 69 237 0.9 6.1 0.00 0.10 0.10 80 1009.4
20260506224531 69 225 1.7 8.7 0.00 0.10 0.10 79 1009.1
20260506223031 70 267 4.3 9.6 0.00 0.10 0.10 78 1009.3
20260506221530 70 219 0.9 5.2 0.00 0.10 0.10 79 1009.3
20260506220030 70 246 2.6 7.8 0.00 0.10 0.10 79 1009.2
20260506214529 70 213 2.6 10.4 0.00 0.10 0.10 78 1009.3
20260506213028 71 194 0.9 5.2 0.00 0.10 0.10 78 1008.9
20260506211528 70 204 3.5 9.6 0.00 0.10 0.10 78 1009.0
20260506210027 70 250 2.6 10.4 0.00 0.10 0.10 78 1008.7
20260506204528 70 243 0.9 8.7 0.00 0.10 0.10 79 1008.8
20260506203034 70 219 1.7 10.4 0.00 0.10 0.10 79 1008.8
20260506201526 69 250 4.3 12.2 0.00 0.10 0.10 80 1008.9
20260506200026 70 234 3.5 11.3 0.00 0.10 0.10 79 1008.8
20260506194524 69 244 5.2 17.4 0.00 0.10 0.10 79 1008.7
20260506193024 69 264 3.5 16.5 0.00 0.10 0.10 79 1008.9
20260506191522 69 248 2.6 8.7 0.00 0.10 0.10 80 1009.1
20260506190032 69 270 5.2 13.0 0.00 0.10 0.10 79 1009.2
20260506184520 69 215 5.2 13.0 0.00 0.10 0.10 79 1009.3
20260506183019 68 270 5.2 12.2 0.00 0.10 0.10 79 1009.4
20260506181517 68 231 4.3 16.5 0.00 0.10 0.10 80 1009.8
20260506180016 67 209 5.2 13.0 0.00 0.10 0.10 81 1010.0
20260506174516 67 186 4.3 13.0 0.00 0.10 0.10 82 1010.2
20260506173014 66 247 6.1 15.6 0.00 0.10 0.10 83 1010.0
20260506171516 65 226 2.6 11.3 0.00 0.10 0.10 84 1010.3
20260506170012 65 260 4.3 14.8 0.01 0.10 0.10 85 1010.2
20260506164514 64 148 4.3 12.2 0.01 0.10 0.10 87 1010.4
20260506163024 64 180 2.6 15.6 0.02 0.10 0.10 89 1010.3
20260506161508 63 230 3.5 9.6 0.02 0.10 0.10 90 1010.3
20260506160008 62 198 2.6 10.4 0.01 0.09 0.09 90 1010.6
20260506154518 62 221 2.6 10.4 0.03 0.09 0.09 90 1010.5
20260506153003 62 219 1.7 8.7 0.06 0.08 0.08 90 1010.8
20260506151502 61 198 2.6 7.8 0.07 0.08 0.08 90 1011.3
20260506150001 61 175 1.7 7.0 0.07 0.08 0.08 89 1011.3
20260506144559 62 184 1.7 7.0 0.06 0.06 0.06 88 1011.5
20260506143057 62 220 0.9 4.3 0.02 0.02 0.02 86 1011.3
20260506141555 62 200 1.7 5.2 0.02 0.02 0.02 85 1011.5
20260506140051 64 187 2.6 9.6 0.01 0.01 0.01 82 1011.7
20260506134547 65 255 2.6 7.8 0.00 0.00 0.00 77 1011.6
20260506133050 65 235 2.6 9.6 0.00 0.00 0.00 76 1011.4
20260506131547 65 246 3.5 8.7 0.00 0.00 0.00 76 1011.3
20260506130047 66 242 1.7 12.2 0.00 0.00 0.00 76 1011.1
20260506124547 65 195 2.6 13.9 0.00 0.00 0.00 75 1011.0
20260506123048 66 253 1.7 7.8 0.00 0.00 0.00 76 1011.2
20260506121553 66 195 1.7 9.6 0.00 0.00 0.00 76 1011.4
20260506120042 66 226 1.7 12.2 0.00 0.00 0.00 76 1011.3
20260506114542 66 152 3.5 13.0 0.00 0.00 0.00 76 1011.2
20260506113040 66 155 2.6 9.6 0.00 0.00 0.00 76 1011.0
20260506111538 65 199 3.5 10.4 0.00 0.00 0.00 77 1010.8
20260506110034 65 257 3.5 12.2 0.00 0.00 0.00 77 1010.8
20260506104531 65 243 4.3 10.4 0.00 0.00 0.00 78 1010.8
20260506103030 65 219 2.6 9.6 0.00 0.00 0.00 78 1010.7
20260506101526 64 236 1.7 7.8 0.00 0.00 0.00 78 1010.7